Marina Di Campo Airport

Jump to: basic info | weather | frequencies | runways | comments

Related pages: nearby airports | nearby navaids | notams | map

Basic information (top)

Codes: EBA LIRJ
Location: lon 42.760300, lat 10.239400, elev 31 ft / 9 m msl
Status: medium_airport

Weather (top)

Current conditions for Bastia-Poretta Airport 36nm (66km) WSW (rec'd 2015/03/29 13:30Z):

LFKB 291330Z 12005KT 080V150 CAVOK 17/11 Q1012 NOSIG

Airport forecast for Bastia-Poretta Airport 36nm (66km) WSW (rec'd 2015/03/29 12:15Z):

TAF LFKB 291100Z 2912/3012 12006KT CAVOK 
      BECMG 2918/2920 34006KT 9999 FEW030 SCT100 BKN200 
      BECMG 3000/3002 34015KT TX18/2913Z TN11/3004Z

Frequencies (top)

Verify before use: may be inaccurate or out of date.

AFIS: 123.7 MHz (AFIS)

Runways (top)

16/34: 3,114 x 75 ft (949 x 23 m) — paved — not lighted — threshold 16 displaced 479 ft (146 m) — threshold 34 displaced 285 ft (87 m)

Latest comments (top)

No comments yet for Marina Di Campo Airport

More... (top)

See also NOTAMs and nearby airports and navaids, or visit the Marina Di Campo Airport page at the main OurAirports website..